DW8913 Weather Reports


time (UTC)temp
C
wind
direction
speed
KPH
gust
KPH
rain 1hr
cm
rain 24hr
cm
rain mn
cm
humidity
%
barometer
mb
20260504081515 10 98 0.0 8.0 0.00 0.00 0.00 71 1015.7
20260504044517 10 134 0.0 3.2 0.00 0.00 0.00 67 1015.2
20260504043106 10 150 0.0 3.2 0.00 0.00 0.00 66 1015.0
20260504041530 10 126 0.0 4.8 0.00 0.00 0.00 69 1015.1
20260504040106 10 92 0.0 1.6 0.00 0.00 0.00 67 1014.9
20260504034541 10 141 0.0 3.2 0.00 0.00 0.00 68 1014.8
20260504033019 10 113 0.0 1.6 0.00 0.00 0.00 68 1014.7
20260504031559 10 131 0.0 4.8 0.00 0.00 0.00 68 1014.7
20260504030025 10 131 0.0 1.6 0.00 0.00 0.00 68 1014.6
20260504024603 9 152 0.0 1.6 0.00 0.00 0.00 69 1014.6
20260504023031 9 214 0.0 0.0 0.00 0.00 0.00 70 1014.7
20260504021502 9 228 0.0 0.0 0.00 0.00 0.00 69 1014.6
20260504020048 10 228 0.0 0.0 0.00 0.00 0.00 69 1014.5
20260504014510 10 228 0.0 0.0 0.00 0.00 0.00 64 1014.4
20260504013105 10 288 0.0 0.0 0.00 0.00 0.00 62 1014.4
20260504011525 10 288 0.0 0.0 0.00 0.00 0.00 61 1014.3
20260504010104 10 288 0.0 0.0 0.00 0.00 0.00 61 1014.1
20260504004540 10 288 0.0 0.0 0.00 0.00 0.00 60 1013.8
20260504003108 10 285 0.0 0.0 0.00 0.00 0.00 57 1013.6
20260504001546 11 284 0.0 0.0 0.00 0.00 0.00 52 1013.4
20260504000010 11 284 0.0 0.0 0.00 0.00 0.00 52 1013.3
20260503234554 12 281 0.0 1.6 0.00 0.00 0.00 46 1013.3
20260503233029 13 348 0.0 4.8 0.00 0.00 0.00 42 1013.3
20260503231604 13 58 0.0 3.2 0.00 0.00 0.00 40 1013.1
20260503230033 14 200 1.6 8.0 0.00 0.00 0.00 39 1013.2
20260503224611 14 228 1.6 8.0 0.00 0.00 0.00 37 1013.0
20260503223039 14 310 1.6 8.0 0.00 0.00 0.00 34 1013.0
20260503221512 15 68 0.0 8.0 0.00 0.00 0.00 36 1012.9
20260503220059 15 269 3.2 11.3 0.00 0.00 0.00 34 1012.9
20260503214523 15 235 4.8 12.9 0.00 0.00 0.00 36 1012.7
20260503213107 15 141 3.2 11.3 0.00 0.00 0.00 35 1012.7
20260503211540 15 323 4.8 12.9 0.00 0.00 0.00 32 1012.5
20260503210008 15 323 0.0 9.7 0.00 0.00 0.00 34 1012.5
20260503204551 15 175 4.8 9.7 0.00 0.00 0.00 33 1012.5
20260503203022 15 116 1.6 11.3 0.00 0.00 0.00 37 1012.5
20260503201606 15 148 4.8 12.9 0.00 0.00 0.00 34 1012.6
20260503200035 15 217 1.6 11.3 0.00 0.00 0.00 35 1012.6
20260503194508 16 185 4.8 12.9 0.00 0.00 0.00 33 1012.6
20260503193054 16 304 6.4 14.5 0.00 0.00 0.00 33 1012.7
20260503191518 15 33 3.2 12.9 0.00 0.00 0.00 34 1012.8
20260503190101 15 136 3.2 11.3 0.00 0.00 0.00 36 1012.9
20260503184528 16 299 4.8 9.7 0.00 0.00 0.00 34 1013.0
20260503183001 16 77 3.2 11.3 0.00 0.00 0.00 34 1013.1
20260503181545 15 148 4.8 12.9 0.00 0.00 0.00 35 1013.2
20260503180016 15 286 3.2 12.9 0.00 0.00 0.00 38 1013.1
20260503174620 15 50 3.2 12.9 0.00 0.00 0.00 32 1013.1
20260503173040 15 321 3.2 11.3 0.00 0.00 0.00 34 1013.2
20260503171504 15 1 3.2 9.7 0.00 0.00 0.00 39 1013.2
20260503130107 9 55 1.6 12.9 0.00 0.00 0.00 59 1013.3
20260503100121 6 63 0.0 6.4 0.00 0.00 0.00 74 1011.1